Location: LewisvilleTX
(33.0462°N, 96.9942°W)
Time: 00:57:42
(UTC+00:00)

Tiangong - Visible Passes

Search period start: 09 December 2021 00:00
Search period end: 19 December 2021 00:00
Orbit: 379 x 385 km, 41.5° (Epoch: 08 December)

Date Brightness Start Highest point End Pass type
(mag) Time Alt. Az. Time Alt. Az. Time Alt. Az.
09 Dec 2.7 01:08:47 10° W 01:10:59 29° NW 01:10:59 29° NW visible
10 Dec 1.5 00:07:59 10° WSW 00:11:05 55° NNW 00:13:25 16° NE visible
11 Dec 2.7 00:44:54 10° WNW 00:47:33 24° NNW 00:47:56 23° N visible
11 Dec 2.2 23:43:55 10° W 23:46:50 33° NNW 23:49:46 10° NE visible
12 Dec 4.0 01:21:58 10° NW 01:22:26 12° NW 01:22:26 12° NW visible
13 Dec 3.0 00:20:59 10° WNW 00:23:22 19° N 00:24:44 15° NNE visible
14 Dec 3.4 00:57:47 10° NW 00:59:12 16° NNW 00:59:12 16° NNW visible
14 Dec 3.1 23:56:56 10° NW 23:59:09 17° N 00:01:22 10° NE visible
16 Dec 2.8 00:33:22 10° NW 00:35:45 19° N 00:36:01 19° NNE visible
17 Dec 3.2 01:09:17 10° NW 01:10:36 20° NNW 01:10:36 20° NNW visible
18 Dec 2.5 00:08:44 10° NW 00:11:23 24° NNE 00:13:07 15° ENE visible
18 Dec 4.5 01:45:13 10° WNW 01:45:17 10° WNW 01:45:17 10° WNW visible
